FW3788 Weather Reports


Display with metric or nautical units.
time (UTC)temp
F
wind
direction
speed
MPH
gust
MPH
rain 1hr
in
rain 24hr
in
rain mn
in
humidity
%
barometer
mb
20260509212019 82 287 1.0 11.0 0.00 0.00 0.00 28 1011.1
20260509211522 82 320 0.0 11.0 0.00 0.00 0.00 27 1011.2
20260509211019 82 338 5.0 10.0 0.00 0.00 0.00 27 1011.1
20260509210520 82 311 4.0 10.0 0.00 0.00 0.00 25 1011.3
20260509210019 82 34 0.0 11.0 0.00 0.00 0.00 26 1011.2
20260509205519 82 47 2.0 11.0 0.00 0.00 0.00 25 1011.3
20260509205019 82 324 1.0 8.0 0.00 0.00 0.00 22 1011.3
20260509204528 82 330 2.0 8.0 0.00 0.00 0.00 25 1011.3
20260509204019 82 18 0.0 6.0 0.00 0.00 0.00 22 1011.3
20260509203519 82 323 2.0 10.0 0.00 0.00 0.00 22 1011.3
20260509203019 81 334 3.0 10.0 0.00 0.00 0.00 22 1011.4
20260509202518 81 293 0.0 10.0 0.00 0.00 0.00 23 1011.5
20260509202019 82 302 1.0 8.0 0.00 0.00 0.00 23 1011.5
20260509201518 83 303 2.0 6.0 0.00 0.00 0.00 21 1011.6
20260509201019 83 138 0.0 3.0 0.00 0.00 0.00 20 1011.6
20260509200518 82 266 0.0 7.0 0.00 0.00 0.00 20 1011.7
20260509200019 81 291 2.0 9.0 0.00 0.00 0.00 21 1011.7
20260509195520 81 52 2.0 9.0 0.00 0.00 0.00 23 1011.8
20260509195021 80 297 2.0 9.0 0.00 0.00 0.00 23 1011.9
20260509194518 80 345 1.0 11.0 0.00 0.00 0.00 22 1011.9
20260509194019 80 8 5.0 11.0 0.00 0.00 0.00 20 1011.9
20260509193519 80 326 1.0 11.0 0.00 0.00 0.00 20 1011.9
20260509193030 80 319 3.0 11.0 0.00 0.00 0.00 21 1012.0
20260509192519 81 323 2.0 9.0 0.00 0.00 0.00 21 1012.0
20260509192022 80 343 1.0 5.0 0.00 0.00 0.00 18 1012.1
20260509191519 80 29 0.0 7.0 0.00 0.00 0.00 14 1012.2
20260509191021 80 343 0.0 8.0 0.00 0.00 0.00 15 1012.2
20260509190523 80 56 0.0 8.0 0.00 0.00 0.00 14 1012.2
20260509190019 80 330 1.0 8.0 0.00 0.00 0.00 14 1012.2
20260509185519 80 23 4.0 8.0 0.00 0.00 0.00 17 1012.3
20260509185023 80 313 3.0 8.0 0.00 0.00 0.00 16 1012.3
20260509184520 80 79 1.0 8.0 0.00 0.00 0.00 14 1012.3
20260509184019 80 317 1.0 5.0 0.00 0.00 0.00 15 1012.4
20260509183519 79 56 0.0 6.0 0.00 0.00 0.00 15 1012.4
20260509183019 79 337 2.0 8.0 0.00 0.00 0.00 16 1012.3
20260509182520 79 30 1.0 8.0 0.00 0.00 0.00 16 1012.4
20260509182018 80 4 2.0 7.0 0.00 0.00 0.00 18 1012.4
20260509181519 79 232 0.0 4.0 0.00 0.00 0.00 21 1012.4
20260509181020 78 285 0.0 4.0 0.00 0.00 0.00 21 1012.5
20260509180520 78 350 1.0 7.0 0.00 0.00 0.00 21 1012.5
20260509180019 78 323 1.0 7.0 0.00 0.00 0.00 21 1012.6
20260509175519 77 322 0.0 6.0 0.00 0.00 0.00 21 1012.5
20260509175021 77 318 0.0 5.0 0.00 0.00 0.00 21 1012.5
20260509174519 77 311 1.0 8.0 0.00 0.00 0.00 20 1012.6
20260509174019 77 349 2.0 8.0 0.00 0.00 0.00 21 1012.7
20260509173518 77 349 0.0 6.0 0.00 0.00 0.00 20 1012.6
20260509173019 77 20 2.0 6.0 0.00 0.00 0.00 21 1012.6
20260509172520 77 335 1.0 7.0 0.00 0.00 0.00 20 1012.7
20260509172120 77 341 0.0 7.0 0.00 0.00 0.00 22 1012.7
20260509171519 77 256 0.0 6.0 0.00 0.00 0.00 22 1012.6
20260509171018 77 347 2.0 6.0 0.00 0.00 0.00 21 1012.6
20260509170519 77 330 0.0 5.0 0.00 0.00 0.00 22 1012.6
20260509170019 77 330 1.0 5.0 0.00 0.00 0.00 19 1012.6
20260509165519 76 308 0.0 4.0 0.00 0.00 0.00 21 1012.7
20260509165023 76 305 1.0 4.0 0.00 0.00 0.00 21 1012.6
20260509164520 76 323 0.0 0.0 0.00 0.00 0.00 22 1012.7
20260509164019 75 322 0.0 5.0 0.00 0.00 0.00 21 1012.8
20260509163519 74 323 2.0 5.0 0.00 0.00 0.00 22 1012.8
20260509163021 74 320 1.0 4.0 0.00 0.00 0.00 22 1012.8
20260509162520 74 110 0.0 0.0 0.00 0.00 0.00 25 1012.8
20260509162020 74 114 0.0 0.0 0.00 0.00 0.00 25 1012.8
20260509161520 73 114 0.0 0.0 0.00 0.00 0.00 27 1012.8
20260509161019 72 114 0.0 0.0 0.00 0.00 0.00 26 1013.0
20260509160519 72 114 0.0 0.0 0.00 0.00 0.00 27 1012.9
20260509160023 71 114 0.0 0.0 0.00 0.00 0.00 28 1013.0
20260509155519 71 114 0.0 0.0 0.00 0.00 0.00 27 1013.0
20260509155019 70 114 0.0 0.0 0.00 0.00 0.00 27 1013.1
20260509154521 70 114 0.0 0.0 0.00 0.00 0.00 34 1013.0
20260509154019 69 114 0.0 0.0 0.00 0.00 0.00 36 1013.2
20260509153521 68 114 0.0 0.0 0.00 0.00 0.00 36 1013.1
20260509153026 67 114 0.0 0.0 0.00 0.00 0.00 34 1013.2
20260509152520 66 114 0.0 0.0 0.00 0.00 0.00 39 1013.1
20260509152020 65 114 0.0 0.0 0.00 0.00 0.00 39 1013.2
20260509151518 64 114 0.0 0.0 0.00 0.00 0.00 41 1013.2
20260509151018 63 114 0.0 0.0 0.00 0.00 0.00 37 1013.2
20260509150518 62 114 0.0 0.0 0.00 0.00 0.00 45 1013.2
20260509150020 61 114 0.0 0.0 0.00 0.00 0.00 47 1013.2
20260509145519 60 114 0.0 0.0 0.00 0.00 0.00 47 1013.2
20260509145019 59 114 0.0 0.0 0.00 0.00 0.00 45 1013.2
20260509144518 58 114 0.0 0.0 0.00 0.00 0.00 48 1013.2
20260509144018 56 114 0.0 0.0 0.00 0.00 0.00 50 1013.2
20260509143519 54 114 0.0 0.0 0.00 0.00 0.00 52 1013.3
20260509142518 51 187 0.0 0.0 0.00 0.00 0.00 54 1013.3
20260509142120 51 187 0.0 0.0 0.00 0.00 0.00 54 1013.2
20260509141518 52 187 0.0 0.0 0.00 0.00 0.00 52 1013.3
20260509141019 51 187 0.0 0.0 0.00 0.00 0.00 52 1013.2
20260509140518 51 187 0.0 0.0 0.00 0.00 0.00 53 1013.2
20260509140019 50 187 0.0 0.0 0.00 0.00 0.00 54 1013.2
20260509135521 48 187 0.0 0.0 0.00 0.00 0.00 56 1013.2
20260509135019 47 187 0.0 0.0 0.00 0.00 0.00 57 1013.2
20260509134518 48 187 0.0 0.0 0.00 0.00 0.00 55 1013.1
20260509134018 48 187 0.0 0.0 0.00 0.00 0.00 56 1013.0
20260509133518 48 187 0.0 0.0 0.00 0.00 0.00 56 1013.0
20260509133018 47 187 0.0 0.0 0.00 0.00 0.00 55 1012.9
20260509132519 47 187 0.0 0.0 0.00 0.00 0.00 55 1012.9
20260509132019 47 187 0.0 0.0 0.00 0.00 0.00 55 1012.8
20260509131530 47 187 0.0 0.0 0.00 0.00 0.00 55 1012.8
20260509131018 47 187 0.0 0.0 0.00 0.00 0.00 54 1012.8
20260509130518 48 187 0.0 0.0 0.00 0.00 0.00 52 1012.7
20260509130026 48 187 0.0 0.0 0.00 0.00 0.00 52 1012.7
20260509125518 49 187 0.0 0.0 0.00 0.00 0.00 54 1012.7
20260509125018 47 197 0.0 0.0 0.00 0.00 0.00 56 1012.7
20260509124522 47 223 0.0 0.0 0.00 0.00 0.00 53 1012.8
20260509124018 47 223 0.0 0.0 0.00 0.00 0.00 55 1012.8
20260509123519 48 223 0.0 0.0 0.00 0.00 0.00 55 1012.7
20260509123119 48 223 0.0 0.0 0.00 0.00 0.00 54 1012.7
20260509122518 48 223 0.0 0.0 0.00 0.00 0.00 54 1012.8
20260509122018 48 223 0.0 0.0 0.00 0.00 0.00 55 1012.8
20260509121519 47 226 0.0 0.0 0.00 0.00 0.00 55 1012.7
20260509121024 47 226 0.0 0.0 0.00 0.00 0.00 53 1012.7
20260509120518 46 226 0.0 0.0 0.00 0.00 0.00 52 1012.9
20260509120018 46 227 0.0 0.0 0.00 0.00 0.00 54 1012.9
20260509115518 47 227 0.0 0.0 0.00 0.00 0.00 54 1012.9
20260509115018 47 227 0.0 0.0 0.00 0.00 0.00 53 1012.9
20260509114518 47 227 0.0 0.0 0.00 0.00 0.00 50 1012.9
20260509114018 47 227 0.0 0.0 0.00 0.00 0.00 50 1013.0
20260509113520 46 227 0.0 0.0 0.00 0.00 0.00 51 1012.9
20260509113018 46 227 0.0 0.0 0.00 0.00 0.00 48 1013.0
20260509112518 46 227 0.0 0.0 0.00 0.00 0.00 48 1012.9
20260509112018 46 228 0.0 0.0 0.00 0.00 0.00 51 1012.9
20260509111519 47 228 0.0 0.0 0.00 0.00 0.00 51 1012.9
20260509111019 47 228 0.0 0.0 0.00 0.00 0.00 51 1012.9
20260509110519 47 228 0.0 0.0 0.00 0.00 0.00 50 1012.9
20260509110019 47 237 0.0 0.0 0.00 0.00 0.00 47 1013.0
20260509105519 47 237 0.0 0.0 0.00 0.00 0.00 47 1012.9
20260509105019 47 237 0.0 0.0 0.00 0.00 0.00 45 1012.9
20260509104519 46 237 0.0 0.0 0.00 0.00 0.00 48 1013.0
20260509104019 46 237 0.0 0.0 0.00 0.00 0.00 45 1013.0
20260509103519 46 237 0.0 0.0 0.00 0.00 0.00 44 1013.1
20260509103019 46 237 0.0 0.0 0.00 0.00 0.00 44 1013.1
20260509102518 46 237 0.0 0.0 0.00 0.00 0.00 46 1013.2
20260509102019 46 237 0.0 0.0 0.00 0.00 0.00 48 1013.2
20260509101618 46 237 0.0 0.0 0.00 0.00 0.00 48 1013.3
20260509101018 46 237 0.0 0.0 0.00 0.00 0.00 46 1013.3
20260509100518 46 237 0.0 0.0 0.00 0.00 0.00 45 1013.3
20260509100023 45 237 0.0 0.0 0.00 0.00 0.00 46 1013.4
20260509095519 45 237 0.0 0.0 0.00 0.00 0.00 47 1013.4
20260509095019 45 237 0.0 0.0 0.00 0.00 0.00 47 1013.4
20260509094519 46 237 0.0 0.0 0.00 0.00 0.00 46 1013.3
20260509094020 46 237 0.0 0.0 0.00 0.00 0.00 45 1013.3
20260509093518 46 237 0.0 0.0 0.00 0.00 0.00 45 1013.3
20260509093019 47 237 0.0 0.0 0.00 0.00 0.00 43 1013.4
20260509092518 47 237 0.0 0.0 0.00 0.00 0.00 42 1013.4
20260509092019 47 237 0.0 0.0 0.00 0.00 0.00 41 1013.4
20260509091520 46 237 0.0 0.0 0.00 0.00 0.00 44 1013.4
20260509091020 46 237 0.0 0.0 0.00 0.00 0.00 45 1013.5
20260509090519 46 237 0.0 0.0 0.00 0.00 0.00 46 1013.5
20260509090020 46 239 0.0 0.0 0.00 0.00 0.00 46 1013.5
20260509085518 46 239 0.0 0.0 0.00 0.00 0.00 47 1013.5
20260509085018 46 239 0.0 0.0 0.00 0.00 0.00 48 1013.4
20260509084520 46 239 0.0 0.0 0.00 0.00 0.00 46 1013.4
20260509084021 46 239 0.0 0.0 0.00 0.00 0.00 47 1013.3
20260509083519 46 243 0.0 0.0 0.00 0.00 0.00 48 1013.3
20260509083018 46 244 0.0 0.0 0.00 0.00 0.00 49 1013.3
20260509082518 47 244 0.0 0.0 0.00 0.00 0.00 48 1013.4
20260509082018 47 243 0.0 0.0 0.00 0.00 0.00 46 1013.4
20260509081521 46 244 0.0 0.0 0.00 0.00 0.00 51 1013.3
20260509081018 46 244 0.0 0.0 0.00 0.00 0.00 49 1013.3
20260509080518 46 244 0.0 0.0 0.00 0.00 0.00 49 1013.4
20260509080026 46 244 0.0 0.0 0.00 0.00 0.00 51 1013.4
20260509075525 46 244 0.0 0.0 0.00 0.00 0.00 50 1013.4
20260509075021 47 244 0.0 0.0 0.00 0.00 0.00 51 1013.3
20260509074519 47 244 0.0 0.0 0.00 0.00 0.00 50 1013.4
20260509074020 47 244 0.0 0.0 0.00 0.00 0.00 50 1013.2
20260509073518 48 244 0.0 0.0 0.00 0.00 0.00 49 1013.3
20260509073019 48 244 0.0 0.0 0.00 0.00 0.00 49 1013.3
20260509072519 47 244 0.0 0.0 0.00 0.00 0.00 48 1013.3
20260509072020 47 244 0.0 0.0 0.00 0.00 0.00 50 1013.4
20260509071519 48 244 0.0 0.0 0.00 0.00 0.00 49 1013.5
20260509071021 48 244 0.0 0.0 0.00 0.00 0.00 48 1013.5
20260509070520 49 244 0.0 0.0 0.00 0.00 0.00 46 1013.6
20260509070019 49 244 0.0 0.0 0.00 0.00 0.00 44 1013.5
20260509065518 48 244 0.0 0.0 0.00 0.00 0.00 46 1013.6
20260509065019 48 244 0.0 0.0 0.00 0.00 0.00 49 1013.6
20260509064519 49 244 0.0 0.0 0.00 0.00 0.00 45 1013.6
20260509064021 49 248 0.0 0.0 0.00 0.00 0.00 46 1013.6
20260509063522 48 248 0.0 0.0 0.00 0.00 0.00 47 1013.7
20260509063018 48 248 0.0 0.0 0.00 0.00 0.00 50 1013.7
20260509062523 48 248 0.0 0.0 0.00 0.00 0.00 52 1013.8
20260509062023 48 248 0.0 0.0 0.00 0.00 0.00 52 1013.7
20260509061522 49 248 0.0 0.0 0.00 0.00 0.00 47 1013.6
20260509061019 49 248 0.0 0.0 0.00 0.00 0.00 47 1013.6
20260509060519 49 249 0.0 0.0 0.00 0.00 0.00 49 1013.6
20260509060019 49 249 0.0 0.0 0.00 0.00 0.00 51 1013.7
20260509055519 49 249 0.0 0.0 0.00 0.00 0.00 49 1013.6
20260509055019 49 249 0.0 0.0 0.00 0.00 0.00 50 1013.6
20260509054519 50 249 0.0 0.0 0.00 0.00 0.00 48 1013.6
20260509054020 50 249 0.0 0.0 0.00 0.00 0.00 48 1013.6
20260509053520 50 249 0.0 0.0 0.00 0.00 0.00 50 1013.6
20260509053019 51 249 0.0 0.0 0.00 0.00 0.00 50 1013.5
20260509052520 51 249 0.0 0.0 0.00 0.00 0.00 49 1013.5
20260509052020 51 249 0.0 0.0 0.00 0.00 0.00 50 1013.6
20260509051521 51 249 0.0 0.0 0.00 0.00 0.00 50 1013.5
20260509051019 51 249 0.0 0.0 0.00 0.00 0.00 50 1013.4
20260509050519 52 249 0.0 0.0 0.00 0.00 0.00 49 1013.4
20260509050021 52 249 0.0 0.0 0.00 0.00 0.00 49 1013.3
20260509045522 54 249 0.0 0.0 0.00 0.00 0.00 46 1013.3
20260509045121 54 249 0.0 0.0 0.00 0.00 0.00 44 1013.2
20260509044519 55 249 0.0 0.0 0.00 0.00 0.00 44 1013.2
20260509044020 55 249 0.0 0.0 0.00 0.00 0.00 44 1013.1
20260509043518 55 249 0.0 0.0 0.00 0.00 0.00 43 1013.1
20260509043019 56 249 0.0 0.0 0.00 0.00 0.00 42 1013.1
20260509042520 56 249 0.0 0.0 0.00 0.00 0.00 44 1013.1
20260509042019 56 252 0.0 0.0 0.00 0.00 0.00 46 1012.9
20260509041531 56 252 0.0 0.0 0.00 0.00 0.00 45 1012.9
20260509041020 56 253 0.0 0.0 0.00 0.00 0.00 45 1012.8
20260509040521 56 253 0.0 0.0 0.00 0.00 0.00 44 1012.9
20260509040019 57 254 0.0 0.0 0.00 0.00 0.00 44 1012.8
20260509035521 57 256 0.0 0.0 0.00 0.00 0.00 43 1012.9
20260509035019 58 257 0.0 0.0 0.00 0.00 0.00 41 1012.7
20260509034519 58 257 0.0 0.0 0.00 0.00 0.00 44 1012.8
20260509034020 59 257 0.0 0.0 0.00 0.00 0.00 42 1012.7
20260509033520 60 257 0.0 0.0 0.00 0.00 0.00 42 1012.7
20260509033019 61 258 0.0 0.0 0.00 0.00 0.00 41 1012.6
20260509032520 61 257 0.0 0.0 0.00 0.00 0.00 40 1012.5
20260509032019 62 258 0.0 0.0 0.00 0.00 0.00 40 1012.4
20260509031519 62 258 0.0 0.0 0.00 0.00 0.00 37 1012.3
20260509031020 63 258 0.0 0.0 0.00 0.00 0.00 36 1012.2
20260509030520 64 258 0.0 0.0 0.00 0.00 0.00 34 1012.2
20260509030021 65 258 0.0 0.0 0.00 0.00 0.00 35 1012.1
20260509025519 66 274 0.0 0.0 0.00 0.00 0.00 33 1012.1
20260509025019 67 274 0.0 0.0 0.00 0.00 0.00 29 1012.1
20260509024520 68 274 0.0 0.0 0.00 0.00 0.00 29 1012.1
20260509024022 69 274 0.0 4.0 0.00 0.00 0.00 28 1011.9
20260509023520 70 274 0.0 5.0 0.00 0.00 0.00 27 1011.9
20260509023019 70 284 0.0 0.0 0.00 0.00 0.00 27 1011.9
20260509022519 71 282 0.0 5.0 0.00 0.00 0.00 26 1011.9
20260509022022 72 306 0.0 5.0 0.00 0.00 0.00 25 1011.9
20260509021520 72 320 0.0 5.0 0.00 0.00 0.00 26 1011.8
20260509021022 72 303 1.0 7.0 0.00 0.00 0.00 26 1011.8
20260509020520 73 306 1.0 6.0 0.00 0.00 0.00 25 1011.8
20260509020120 73 359 0.0 6.0 0.00 0.00 0.00 25 1011.8
20260509015519 73 309 1.0 7.0 0.00 0.00 0.00 24 1011.8
20260509015019 74 298 0.0 6.0 0.00 0.00 0.00 24 1011.8
20260509014519 74 312 2.0 8.0 0.00 0.00 0.00 23 1011.8
20260509014023 74 282 0.0 8.0 0.00 0.00 0.00 23 1011.8
20260509013520 75 281 0.0 9.0 0.00 0.00 0.00 22 1011.8
20260509013020 75 291 2.0 9.0 0.00 0.00 0.00 22 1011.8
20260509012524 75 343 0.0 10.0 0.00 0.00 0.00 22 1011.8
20260509012019 75 319 4.0 10.0 0.00 0.00 0.00 21 1011.8
20260509011526 76 319 3.0 9.0 0.00 0.00 0.00 21 1011.9
20260509011020 76 320 2.0 10.0 0.00 0.00 0.00 22 1011.8
20260509010519 76 318 3.0 10.0 0.00 0.00 0.00 22 1011.9
20260509010035 76 310 1.0 10.0 0.00 0.00 0.00 22 1011.9
20260509005522 77 335 3.0 10.0 0.00 0.00 0.00 21 1012.0
20260509005024 77 291 1.0 10.0 0.00 0.00 0.00 22 1012.0
20260509004525 77 316 3.0 10.0 0.00 0.00 0.00 21 1011.9
20260509004019 77 280 3.0 12.0 0.00 0.00 0.00 21 1012.0
20260509003521 78 276 4.0 12.0 0.00 0.00 0.00 21 1012.0
20260509003020 78 272 2.0 9.0 0.00 0.00 0.00 21 1012.1
20260509002519 79 289 3.0 9.0 0.00 0.00 0.00 19 1012.1
20260509002020 79 283 4.0 10.0 0.00 0.00 0.00 19 1012.1
20260509001519 79 287 1.0 10.0 0.00 0.00 0.00 19 1012.2
20260509001019 79 266 3.0 10.0 0.00 0.00 0.00 17 1012.2
20260509000519 79 302 2.0 10.0 0.00 0.00 0.00 18 1012.2
20260509000019 79 308 4.0 10.0 0.00 0.00 0.00 18 1012.1
20260508235519 79 330 5.0 13.0 0.00 0.00 0.00 18 1012.2
20260508235020 80 286 3.0 10.0 0.00 0.00 0.00 17 1012.2
20260508234524 80 304 3.0 10.0 0.00 0.00 0.00 16 1012.2
20260508234020 80 305 1.0 10.0 0.00 0.00 0.00 16 1012.2
20260508233523 80 350 3.0 11.0 0.00 0.00 0.00 16 1012.2
20260508233124 80 328 4.0 11.0 0.00 0.00 0.00 16 1012.2
20260508232519 80 329 1.0 11.0 0.00 0.00 0.00 16 1012.3
20260508232147 80 312 2.0 11.0 0.00 0.00 0.00 13 1012.3
20260508231519 81 283 3.0 9.0 0.00 0.00 0.00 14 1012.4
20260508231022 81 269 3.0 10.0 0.00 0.00 0.00 13 1012.4
20260508230520 81 266 2.0 10.0 0.00 0.00 0.00 14 1012.4
20260508230032 81 300 2.0 8.0 0.00 0.00 0.00 12 1012.5
20260508225620 81 285 0.0 10.0 0.00 0.00 0.00 14 1012.5
20260508225019 81 251 3.0 10.0 0.00 0.00 0.00 13 1012.7
20260508224526 81 284 2.0 11.0 0.00 0.00 0.00 13 1012.7
20260508224019 81 288 2.0 11.0 0.00 0.00 0.00 13 1012.7
20260508223519 81 286 3.0 10.0 0.00 0.00 0.00 12 1012.7
20260508223121 81 280 2.0 9.0 0.00 0.00 0.00 12 1012.8
20260508222521 81 289 2.0 9.0 0.00 0.00 0.00 13 1012.8
20260508222019 81 274 2.0 9.0 0.00 0.00 0.00 12 1012.9
20260508221536 81 305 3.0 11.0 0.00 0.00 0.00 13 1012.9
20260508221019 81 309 2.0 11.0 0.00 0.00 0.00 13 1013.0
20260508220520 81 310 3.0 10.0 0.00 0.00 0.00 12 1013.0
20260508220018 81 301 2.0 10.0 0.00 0.00 0.00 12 1013.2
20260508215519 81 314 2.0 9.0 0.00 0.00 0.00 11 1013.2
20260508215021 81 274 2.0 12.0 0.00 0.00 0.00 10 1013.2
20260508214518 82 270 3.0 11.0 0.00 0.00 0.00 11 1013.3
20260508214019 81 288 2.0 11.0 0.00 0.00 0.00 9 1013.2
20260508213619 81 270 2.0 9.0 0.00 0.00 0.00 10 1013.2
20260508213023 81 281 2.0 10.0 0.00 0.00 0.00 10 1013.2
20260508212519 81 294 2.0 10.0 0.00 0.00 0.00 10 1013.4